CZ-6A DEB, 55535

Orbit data source: Space-Track

CZ-6A DEB, 55535 is space debris in SSO originally from a launch on Fri, 11 Nov 2022 UTC launched from the Taiyaun Space Center, China (TSC). Debris objects in space refer to the collection of defunct objects orbiting the Earth. Examples of debris include non-operational satellites, rocket bodies, and fragments generated from explosions, collisions, or faulty payload assembly.

Loading next visibility...
Identifier
55535, 2022-151YH
Orbit
SSO
Country
Flag of CNCN / PRC
Related business
Manufacturer
SAST
Mission
Spacecraft
Bus & Motor
Unknown
Mass
Unknown
Launch date (UTC)
2022-11-11 (4 years ago)
Launch vehicle
Unknown
Launch site
Taiyaun Space Center, China (TSC)
Object type
Payload
Rocket body
Debris
Shape & HBR
Unknown shape, 0.1 m
Radar Cross Section
Medium (>0.1 m² and <1 m²)

Expand to show TLE details & history
Last TLE update: 23 hours ago

TLE from 23 hours ago
0 CZ-6A DEB
1 55535U 22151YH  26206.15089152  .00018194  00000-0  26297-2 0  9992
2 55535  98.6311 278.1966 0073461 152.8028 207.7056 14.74381724190782
Epoch: 2026-07-25T03:37Z
TLE epoch observation values (Epoch: 2026-07-25T03:37:17.027Z)
Latitude
-0.00004°
Longitude
-78.99164°
Altitude
695.888 km
Speed
7.484 km/s
True Right ascension
18h 32m 47s
True Declination
0° 00' 00"
Sunlit
Object was in full shadow at epoch
Visualization orbit readout
Latitude
Unknown
Longitude
Unknown
Altitude
Unknown
Speed
Unknown
Apparent Right ascension
Unknown
Apparent Declination
Unknown
Sunlit
N/A
Visualization observer readout
Local Sidereal Time
16:10:58
Azimuth
Unknown
Elevation
Unknown
Doppler factor
Unknown
Orbital elements
Apogee altitude
695.784 km
Perigee altitude
592.61 km
Semi-major axis
7,022.334 km
Eccentricity
0.00735
Inclination
98.6311°
RAAN
278.1966°
Arg. of periapsis
152.8028°
True anomaly
207.31738°
Mean anomaly
207.7056°
Eccentric anomaly
207.51118°
Mean motion
3.68826 °/min
Orbital period
97.61 mins
BSTAR
0.0026297
Loading maneuver chart data...
Computing Atmospheric mass density...
Loading historical data...
Loading historical data...
Loading historical data...
Loading historical data...
Loading historical data...
Loading historical data...
Loading historical data...

Documentation

Showing up to 5 results
|